QPF
0.01 0.01 0.00 0.00 0.00 0.01 0.01 0.01 0.01 0.01 0.01 0.00 0.00 0.00 0.02 0.03 0.03 0.03 0.02 0.01 0.00 0.00 0.00 0.00 0.00 0.01 0.01 0.01 0.01 0.01 0.01 0.01 0.01 0.01 0.01 0.01 0.01 0.01 0.01 0.01 0.01 0.01 0.01
0.00 0.01 0.00 0.00 0.00 0.01 0.01 0.01 0.01 0.01 0.01 0.01 0.00 0.00 0.00 0.01 0.02 0.03 0.03 0.02 0.01 0.01 0.00 0.00 0.00 0.00 0.01 0.02 0.02 0.02 0.02 0.02 0.01 0.01 0.01 0.01 0.01 0.01 0.01 0.01 0.01 0.01 0.01
0.01 0.00 0.00 0.00 0.00 0.00 0.01 0.01 0.01 0.01 0.01 0.01 0.00 0.00 0.00 0.01 0.01 0.02 0.02 0.03 0.02 0.01 0.01 0.00 0.00 0.00 0.00 0.01 0.02 0.02 0.02 0.02 0.02 0.02 0.02 0.01 0.01 0.01 0.01 0.01 0.01 0.01 0.01
0.01 0.00 0.00 0.00 0.00 0.00 0.00 0.01 0.01 0.01 0.01 0.01 0.01 0.00 0.01 0.01 0.01 0.01 0.01 0.02 0.02 0.02 0.01 0.01 0.00 0.00 0.00 0.00 0.01 0.01 0.02 0.02 0.02 0.02 0.02 0.01 0.01 0.01 0.01 0.01 0.01 0.01 0.01
0.01 0.00 0.00 0.00 0.00 0.00 0.00 0.00 0.01 0.01 0.01 0.01 0.01 0.01 0.01 0.01 0.01 0.00 0.01 0.01 0.02 0.02 0.02 0.01 0.01 0.00 0.00 0.01 0.00 0.00 0.00 0.01 0.01 0.01 0.01 0.01 0.01 0.01 0.01 0.01 0.01 0.01 0.01
0.01 0.01 0.00 0.00 0.00 0.00 0.00 0.00 0.00 0.00 0.01 0.01 0.01 0.01 0.01 0.01 0.01 0.00 0.01 0.01 0.00 0.01 0.01 0.01 0.01 0.01 0.00 0.00 0.01 0.01 0.01 0.00 0.01 0.01 0.01 0.01 0.01 0.01 0.01 0.01 0.01 0.01 0.01
0.00 0.00 0.00 0.00 0.00 0.00 0.00 0.00 0.00 0.00 0.00 0.01 0.01 0.01 0.01 0.01 0.01 0.00 0.00 0.00 0.00 0.00 0.00 0.01 0.01 0.01 0.01 0.00 0.00 0.00 0.01 0.01 0.01 0.01 0.00 0.00 0.01 0.00 0.01 0.01 0.01 0.01 0.01
0.00 0.00 0.00 0.00 0.00 0.00 0.00 0.00 0.00 0.00 0.00 0.00 0.00 0.00 0.00 0.01 0.01 0.00 0.00 0.00 0.00 0.00 0.00 0.00 0.00 0.00 0.01 0.01 0.00 0.00 0.00 0.00 0.00 0.01 0.00 0.00 0.01 0.01 0.01 0.01 0.01 0.01 0.00
0.00 0.00 0.00 0.00 0.00 0.00 0.00 0.00 0.00 0.00 0.00 0.00 0.00 0.00 0.00 0.00 0.00 0.00 0.00 0.00 0.00 0.00 0.00 0.00 0.00 0.00 0.00 0.00 0.00 0.00 0.00 0.00 0.00 0.00 0.00 0.00 0.00 0.00 0.01 0.01 0.01 0.01 0.01
0.00 0.00 0.00 0.00 0.00 0.00 0.00 0.00 0.00 0.00 0.00 0.00 0.00 0.00 0.00 0.00 0.00 0.00 0.00 0.00 0.00 0.00 0.00 0.00 0.00 0.00 0.00 0.00 0.00 0.00 0.00 0.00 0.00 0.00 0.00 0.00 0.00 0.00 0.00 0.00 0.01 0.01 0.01
0.00 0.00 0.00 0.00 0.00 0.00 0.00 0.00 0.00 0.00 0.00 0.00 0.00 0.00 0.00 0.00 0.00 0.00 0.00 0.00 0.00 0.00 0.00 0.00 0.00 0.00 0.01 0.01 0.01 0.00 0.00 0.00 0.00 0.00 0.00 0.00 0.00 0.00 0.00 0.00 0.00 0.01 0.01
0.00 0.00 0.00 0.00 0.00 0.00 0.00 0.00 0.00 0.00 0.00 0.00 0.00 0.00 0.00 0.00 0.00 0.00 0.00 0.00 0.00 0.00 0.00 0.00 0.00 0.00 0.01 0.01 0.01 0.01 0.01 0.01 0.00 0.00 0.00 0.00 0.00 0.00 0.00 0.00 0.00 0.00 0.00
0.00 0.00 0.00 0.00 0.00 0.00 0.00 0.00 0.00 0.00 0.00 0.00 0.00 0.00 0.00 0.00 0.00 0.00 0.00 0.00 0.00 0.00 0.00 0.00 0.00 0.00 0.01 0.01 0.01 0.01 0.01 0.01 0.01 0.00 0.00 0.00 0.00 0.00 0.00 0.00 0.00 0.00 0.00
0.00 0.00 0.00 0.00 0.00 0.00 0.00 0.00 0.00 0.00 0.00 0.00 0.00 0.00 0.00 0.00 0.00 0.00 0.00 0.00 0.00 0.00 0.00 0.00 0.00 0.00 0.00 0.01 0.01 0.01 0.01 0.01 0.01 0.01 0.00 0.00 0.01 0.01 0.01 0.01 0.01 0.01 0.01
0.00 0.00 0.00 0.00 0.00 0.00 0.00 0.00 0.00 0.00 0.00 0.00 0.00 0.00 0.00 0.00 0.00 0.00 0.00 0.00 0.00 0.00 0.00 0.00 0.00 0.00 0.00 0.01 0.01 0.01 0.01 0.01 0.01 0.01 0.01 0.02 0.02 0.01 0.01 0.01 0.02 0.02 0.02
0.00 0.00 0.00 0.00 0.00 0.00 0.00 0.00 0.00 0.00 0.00 0.00 0.00 0.00 0.00 0.00 0.00 0.00 0.00 0.00 0.00 0.00 0.01 0.01 0.01 0.01 0.01 0.01 0.01 0.01 0.01 0.01 0.01 0.01 0.02 0.02 0.02 0.02 0.02 0.02 0.02 0.03 0.03
0.01 0.00 0.00 0.00 0.00 0.00 0.00 0.00 0.00 0.00 0.00 0.00 0.00 0.00 0.00 0.00 0.00 0.00 0.00 0.00 0.00 0.01 0.01 0.01 0.01 0.01 0.01 0.01 0.01 0.01 0.01 0.01 0.01 0.02 0.02 0.02 0.02 0.02 0.02 0.03 0.03 0.03 0.02
0.01 0.00 0.00 0.00 0.00 0.00 0.00 0.00 0.00 0.00 0.00 0.00 0.00 0.00 0.00 0.00 0.00 0.00 0.00 0.00 0.00 0.00 0.00 0.00 0.00 0.00 0.01 0.01 0.01 0.01 0.01 0.01 0.01 0.02 0.02 0.02 0.02 0.03 0.03 0.03 0.03 0.03 0.03
0.01 0.00 0.00 0.00 0.00 0.00 0.00 0.00 0.00 0.00 0.00 0.00 0.00 0.00 0.00 0.00 0.00 0.00 0.00 0.00 0.00 0.00 0.00 0.00 0.00 0.01 0.01 0.01 0.01 0.01 0.01 0.01 0.01 0.02 0.02 0.02 0.03 0.03 0.03 0.03 0.03 0.03 0.03
0.00 0.00 0.00 0.00 0.00 0.00 0.00 0.00 0.00 0.00 0.00 0.00 0.00 0.00 0.00 0.00 0.00 0.00 0.00 0.00 0.00 0.00 0.00 0.01 0.01 0.01 0.01 0.01 0.01 0.01 0.01 0.02 0.02 0.02 0.02 0.03 0.03 0.04 0.04 0.03 0.03 0.03 0.03
0.00 0.00 0.00 0.00 0.00 0.00 0.00 0.00 0.00 0.00 0.00 0.00 0.00 0.00 0.00 0.00 0.00 0.00 0.00 0.00 0.00 0.00 0.00 0.01 0.01 0.01 0.00 0.01 0.01 0.01 0.02 0.02 0.02 0.02 0.03 0.03 0.03 0.04 0.04 0.04 0.03 0.03 0.03
0.00 0.00 0.00 0.00 0.00 0.00 0.00 0.00 0.00 0.00 0.00 0.00 0.00 0.00 0.00 0.00 0.00 0.00 0.00 0.00 0.00 0.00 0.00 0.00 0.00 0.00 0.01 0.01 0.01 0.02 0.02 0.02 0.02 0.02 0.03 0.03 0.03 0.03 0.04 0.04 0.03 0.03 0.03
0.00 0.00 0.00 0.00 0.00 0.00 0.00 0.00 0.00 0.00 0.00 0.00 0.00 0.00 0.00 0.00 0.00 0.00 0.00 0.00 0.00 0.00 0.00 0.01 0.01 0.01 0.01 0.01 0.01 0.02 0.02 0.02 0.02 0.03 0.03 0.03 0.03 0.03 0.03 0.03 0.03 0.03 0.02
0.00 0.00 0.00 0.00 0.00 0.00 0.00 0.00 0.00 0.00 0.00 0.00 0.00 0.00 0.00 0.00 0.00 0.01 0.01 0.01 0.00 0.00 0.01 0.01 0.01 0.01 0.01 0.01 0.01 0.01 0.01 0.02 0.02 0.03 0.03 0.03 0.03 0.03 0.03 0.03 0.02 0.02 0.02
0.00 0.00 0.00 0.00 0.00 0.00 0.00 0.00 0.00 0.00 0.00 0.00 0.00 0.00 0.00 0.00 0.01 0.01 0.01 0.01 0.01 0.01 0.01 0.01 0.01 0.01 0.01 0.01 0.01 0.01 0.02 0.02 0.02 0.03 0.03 0.03 0.03 0.03 0.02 0.02 0.02 0.02 0.02
0.00 0.00 0.00 0.00 0.00 0.00 0.00 0.00 0.00 0.00 0.00 0.00 0.00 0.01 0.01 0.01 0.01 0.01 0.01 0.01 0.01 0.01 0.01 0.01 0.01 0.01 0.01 0.01 0.01 0.01 0.02 0.02 0.02 0.03 0.03 0.03 0.03 0.02 0.02 0.02 0.02 0.02 0.02
MSLP
1014.45 1015.08 1015.69 1016.27 1016.78 1017.24 1017.64 1017.99 1018.30 1018.60 1018.89 1019.20 1019.52 1019.84 1020.15 1020.44 1020.70 1020.91 1021.08 1021.22 1021.32 1021.42 1021.51 1021.61 1021.71 1021.80 1021.88 1021.92 1021.91 1021.84 1021.70 1021.49 1021.23 1020.95 1020.65 1020.38 1020.14 1019.95 1019.82 1019.75 1019.72 1019.73 1019.75
1013.96 1014.59 1015.21 1015.79 1016.33 1016.81 1017.23 1017.61 1017.95 1018.27 1018.58 1018.89 1019.20 1019.50 1019.80 1020.07 1020.31 1020.50 1020.65 1020.76 1020.84 1020.90 1020.96 1021.02 1021.09 1021.16 1021.23 1021.28 1021.30 1021.27 1021.19 1021.06 1020.87 1020.65 1020.40 1020.15 1019.91 1019.70 1019.52 1019.39 1019.30 1019.24 1019.20
1013.52 1014.16 1014.78 1015.37 1015.92 1016.42 1016.88 1017.28 1017.64 1017.98 1018.29 1018.60 1018.90 1019.19 1019.46 1019.71 1019.92 1020.09 1020.21 1020.30 1020.35 1020.38 1020.40 1020.42 1020.45 1020.49 1020.53 1020.58 1020.62 1020.63 1020.60 1020.53 1020.42 1020.26 1020.07 1019.86 1019.63 1019.41 1019.21 1019.03 1018.89 1018.77 1018.67
1013.18 1013.82 1014.44 1015.04 1015.60 1016.12 1016.59 1017.01 1017.39 1017.74 1018.06 1018.36 1018.65 1018.92 1019.17 1019.39 1019.58 1019.73 1019.83 1019.89 1019.92 1019.91 1019.89 1019.87 1019.86 1019.85 1019.87 1019.90 1019.93 1019.95 1019.96 1019.94 1019.88 1019.79 1019.65 1019.47 1019.28 1019.07 1018.86 1018.66 1018.48 1018.32 1018.18
1012.97 1013.60 1014.22 1014.82 1015.38 1015.90 1016.38 1016.81 1017.20 1017.56 1017.88 1018.17 1018.45 1018.70 1018.94 1019.14 1019.31 1019.45 1019.54 1019.58 1019.58 1019.55 1019.50 1019.44 1019.37 1019.32 1019.29 1019.27 1019.27 1019.29 1019.30 1019.30 1019.27 1019.21 1019.12 1018.98 1018.82 1018.64 1018.44 1018.24 1018.06 1017.88 1017.73
1012.89 1013.51 1014.12 1014.71 1015.26 1015.78 1016.26 1016.69 1017.09 1017.44 1017.76 1018.05 1018.31 1018.55 1018.77 1018.96 1019.12 1019.25 1019.33 1019.36 1019.35 1019.30 1019.22 1019.12 1019.00 1018.89 1018.80 1018.73 1018.68 1018.65 1018.63 1018.62 1018.60 1018.56 1018.49 1018.40 1018.27 1018.12 1017.96 1017.78 1017.62 1017.45 1017.30
1012.92 1013.53 1014.13 1014.70 1015.24 1015.75 1016.21 1016.64 1017.03 1017.38 1017.69 1017.97 1018.22 1018.45 1018.65 1018.83 1018.99 1019.10 1019.18 1019.21 1019.19 1019.13 1019.02 1018.88 1018.72 1018.55 1018.39 1018.25 1018.14 1018.05 1017.99 1017.94 1017.91 1017.86 1017.81 1017.74 1017.65 1017.54 1017.42 1017.29 1017.15 1017.02 1016.90
1013.02 1013.64 1014.22 1014.77 1015.30 1015.78 1016.23 1016.65 1017.02 1017.36 1017.66 1017.92 1018.16 1018.37 1018.56 1018.73 1018.87 1018.98 1019.05 1019.07 1019.04 1018.97 1018.84 1018.67 1018.47 1018.25 1018.03 1017.83 1017.64 1017.49 1017.38 1017.29 1017.22 1017.17 1017.12 1017.06 1017.00 1016.94 1016.86 1016.77 1016.68 1016.59 1016.49
1013.17 1013.77 1014.35 1014.89 1015.39 1015.86 1016.30 1016.70 1017.05 1017.37 1017.66 1017.90 1018.12 1018.31 1018.47 1018.62 1018.74 1018.83 1018.88 1018.89 1018.85 1018.76 1018.62 1018.42 1018.19 1017.94 1017.67 1017.41 1017.17 1016.97 1016.80 1016.67 1016.58 1016.51 1016.46 1016.42 1016.39 1016.35 1016.31 1016.26 1016.21 1016.15 1016.07
1013.30 1013.91 1014.48 1015.01 1015.51 1015.96 1016.38 1016.77 1017.11 1017.41 1017.67 1017.89 1018.08 1018.24 1018.37 1018.48 1018.57 1018.63 1018.66 1018.65 1018.59 1018.48 1018.32 1018.11 1017.85 1017.57 1017.28 1016.99 1016.72 1016.48 1016.28 1016.13 1016.01 1015.94 1015.89 1015.86 1015.84 1015.82 1015.80 1015.78 1015.75 1015.71 1015.64
1013.41 1014.02 1014.59 1015.12 1015.61 1016.06 1016.47 1016.84 1017.17 1017.45 1017.69 1017.89 1018.04 1018.16 1018.26 1018.32 1018.37 1018.38 1018.38 1018.33 1018.25 1018.12 1017.94 1017.71 1017.45 1017.16 1016.85 1016.55 1016.27 1016.02 1015.82 1015.65 1015.54 1015.46 1015.41 1015.39 1015.38 1015.37 1015.36 1015.35 1015.32 1015.28 1015.21
1013.47 1014.09 1014.67 1015.20 1015.69 1016.14 1016.55 1016.92 1017.23 1017.50 1017.72 1017.88 1018.00 1018.09 1018.13 1018.15 1018.15 1018.12 1018.06 1017.98 1017.86 1017.70 1017.51 1017.27 1017.00 1016.71 1016.41 1016.12 1015.85 1015.61 1015.41 1015.26 1015.15 1015.08 1015.04 1015.02 1015.01 1015.00 1014.99 1014.96 1014.92 1014.86 1014.78
1013.48 1014.11 1014.70 1015.24 1015.74 1016.20 1016.61 1016.97 1017.28 1017.54 1017.74 1017.88 1017.97 1018.02 1018.02 1018.00 1017.94 1017.86 1017.76 1017.64 1017.48 1017.30 1017.08 1016.83 1016.56 1016.27 1015.98 1015.70 1015.45 1015.23 1015.06 1014.92 1014.83 1014.77 1014.74 1014.72 1014.71 1014.70 1014.67 1014.63 1014.56 1014.48 1014.36
1013.47 1014.10 1014.69 1015.24 1015.75 1016.22 1016.63 1017.00 1017.31 1017.56 1017.75 1017.88 1017.94 1017.96 1017.93 1017.87 1017.78 1017.66 1017.52 1017.35 1017.16 1016.95 1016.70 1016.44 1016.16 1015.88 1015.59 1015.33 1015.10 1014.90 1014.75 1014.63 1014.56 1014.51 1014.49 1014.47 1014.46 1014.43 1014.38 1014.32 1014.23 1014.12 1013.98
1013.45 1014.07 1014.67 1015.22 1015.74 1016.21 1016.64 1017.01 1017.32 1017.57 1017.75 1017.87 1017.93 1017.93 1017.88 1017.79 1017.67 1017.52 1017.35 1017.16 1016.93 1016.69 1016.43 1016.14 1015.85 1015.56 1015.28 1015.02 1014.79 1014.61 1014.47 1014.37 1014.31 1014.27 1014.25 1014.24 1014.22 1014.18 1014.12 1014.03 1013.92 1013.79 1013.63
1013.43 1014.04 1014.63 1015.19 1015.71 1016.19 1016.62 1017.00 1017.32 1017.57 1017.75 1017.87 1017.92 1017.91 1017.86 1017.76 1017.63 1017.47 1017.28 1017.06 1016.82 1016.55 1016.26 1015.95 1015.64 1015.33 1015.03 1014.77 1014.54 1014.35 1014.21 1014.12 1014.06 1014.03 1014.01 1013.99 1013.97 1013.92 1013.85 1013.75 1013.63 1013.48 1013.31
1013.43 1014.02 1014.60 1015.16 1015.68 1016.17 1016.61 1016.99 1017.31 1017.57 1017.75 1017.87 1017.92 1017.91 1017.86 1017.76 1017.63 1017.46 1017.27 1017.04 1016.78 1016.50 1016.18 1015.85 1015.51 1015.17 1014.86 1014.57 1014.32 1014.12 1013.97 1013.87 1013.80 1013.77 1013.75 1013.73 1013.70 1013.65 1013.58 1013.48 1013.35 1013.19 1013.02
1013.44 1014.02 1014.59 1015.15 1015.67 1016.17 1016.61 1017.00 1017.32 1017.57 1017.75 1017.86 1017.92 1017.91 1017.86 1017.77 1017.65 1017.49 1017.29 1017.06 1016.79 1016.49 1016.16 1015.81 1015.44 1015.07 1014.72 1014.41 1014.13 1013.91 1013.74 1013.62 1013.55 1013.50 1013.48 1013.46 1013.43 1013.38 1013.30 1013.20 1013.06 1012.90 1012.71
1013.47 1014.04 1014.61 1015.17 1015.70 1016.20 1016.64 1017.03 1017.34 1017.59 1017.76 1017.86 1017.91 1017.90 1017.85 1017.76 1017.64 1017.49 1017.30 1017.07 1016.80 1016.49 1016.15 1015.78 1015.39 1014.99 1014.62 1014.27 1013.97 1013.72 1013.52 1013.39 1013.30 1013.24 1013.21 1013.18 1013.15 1013.09 1013.01 1012.90 1012.76 1012.58 1012.37
1013.52 1014.08 1014.65 1015.22 1015.76 1016.26 1016.71 1017.08 1017.39 1017.61 1017.77 1017.85 1017.88 1017.86 1017.80 1017.71 1017.59 1017.44 1017.25 1017.03 1016.76 1016.45 1016.10 1015.72 1015.32 1014.91 1014.51 1014.14 1013.81 1013.54 1013.33 1013.18 1013.07 1013.00 1012.96 1012.92 1012.87 1012.80 1012.70 1012.57 1012.40 1012.20 1011.96
1013.57 1014.15 1014.73 1015.31 1015.86 1016.36 1016.80 1017.16 1017.44 1017.64 1017.76 1017.82 1017.81 1017.77 1017.69 1017.59 1017.46 1017.30 1017.12 1016.90 1016.64 1016.34 1015.99 1015.61 1015.20 1014.78 1014.38 1014.00 1013.67 1013.38 1013.16 1012.99 1012.87 1012.78 1012.71 1012.65 1012.58 1012.48 1012.35 1012.18 1011.98 1011.73 1011.44
1013.64 1014.23 1014.83 1015.42 1015.97 1016.47 1016.90 1017.24 1017.48 1017.64 1017.72 1017.73 1017.69 1017.61 1017.50 1017.38 1017.24 1017.08 1016.90 1016.68 1016.43 1016.13 1015.80 1015.43 1015.03 1014.62 1014.22 1013.85 1013.51 1013.22 1012.99 1012.81 1012.67 1012.56 1012.46 1012.37 1012.25 1012.11 1011.93 1011.70 1011.44 1011.13 1010.77
1013.74 1014.34 1014.95 1015.54 1016.09 1016.57 1016.97 1017.28 1017.48 1017.59 1017.62 1017.59 1017.50 1017.38 1017.24 1017.09 1016.94 1016.77 1016.59 1016.38 1016.13 1015.85 1015.53 1015.18 1014.80 1014.41 1014.02 1013.66 1013.33 1013.05 1012.81 1012.61 1012.45 1012.31 1012.17 1012.02 1011.85 1011.64 1011.39 1011.10 1010.76 1010.37 1009.95
1013.87 1014.47 1015.07 1015.66 1016.19 1016.64 1017.00 1017.26 1017.41 1017.47 1017.45 1017.37 1017.24 1017.08 1016.92 1016.75 1016.58 1016.41 1016.22 1016.02 1015.78 1015.51 1015.21 1014.88 1014.52 1014.15 1013.78 1013.43 1013.11 1012.83 1012.58 1012.36 1012.17 1011.98 1011.79 1011.58 1011.34 1011.06 1010.72 1010.34 1009.92 1009.45 1008.96
1014.03 1014.62 1015.20 1015.75 1016.24 1016.65 1016.96 1017.17 1017.27 1017.28 1017.21 1017.09 1016.93 1016.75 1016.56 1016.38 1016.21 1016.03 1015.84 1015.64 1015.42 1015.16 1014.87 1014.55 1014.20 1013.85 1013.50 1013.15 1012.84 1012.54 1012.28 1012.03 1011.80 1011.56 1011.31 1011.02 1010.70 1010.33 1009.91 1009.44 1008.94 1008.40 1007.84
1014.22 1014.78 1015.32 1015.83 1016.26 1016.60 1016.85 1017.00 1017.05 1017.02 1016.92 1016.77 1016.59 1016.40 1016.21 1016.03 1015.86 1015.68 1015.50 1015.30 1015.07 1014.82 1014.53 1014.21 1013.87 1013.52 1013.17 1012.82 1012.49 1012.18 1011.88 1011.60 1011.31 1011.01 1010.69 1010.33 1009.92 1009.47 1008.97 1008.42 1007.85 1007.25 1006.64
Thickness
5565 5563 5560 5559 5557 5555 5553 5551 5550 5549 5548 5547 5545 5543 5541 5539 5537 5534 5532 5530 5528 5525 5523 5521 5519 5516 5513 5510 5507 5504 5501 5497 5494 5494 5493 5492 5489 5488 5486 5484 5482 5480 5479
5558 5556 5554 5552 5550 5548 5546 5544 5542 5541 5539 5538 5536 5534 5532 5530 5527 5525 5522 5520 5518 5515 5512 5510 5508 5505 5502 5500 5496 5493 5489 5486 5483 5481 5480 5478 5476 5475 5474 5472 5470 5468 5467
5550 5547 5545 5543 5541 5540 5538 5536 5535 5533 5531 5529 5526 5524 5522 5520 5517 5515 5512 5510 5508 5505 5502 5500 5497 5494 5491 5488 5485 5481 5478 5476 5473 5470 5468 5466 5464 5462 5461 5459 5457 5455 5454
5542 5539 5536 5535 5533 5531 5530 5528 5526 5524 5521 5519 5517 5514 5512 5509 5507 5504 5502 5499 5496 5494 5492 5489 5486 5483 5480 5477 5474 5471 5467 5463 5460 5458 5456 5453 5450 5449 5447 5444 5443 5441 5440
5533 5530 5528 5526 5525 5522 5520 5518 5516 5514 5512 5510 5507 5504 5502 5499 5497 5494 5491 5488 5485 5483 5480 5478 5476 5473 5470 5466 5463 5460 5456 5452 5448 5445 5443 5440 5438 5435 5433 5431 5429 5428 5427
5525 5522 5520 5517 5515 5512 5510 5508 5506 5504 5502 5499 5497 5494 5491 5489 5487 5484 5480 5477 5475 5472 5469 5467 5464 5462 5458 5456 5453 5450 5446 5442 5437 5433 5430 5427 5426 5423 5420 5418 5414 5412 5411
5516 5514 5511 5508 5505 5503 5501 5498 5496 5494 5492 5489 5487 5484 5481 5479 5476 5473 5470 5466 5463 5460 5457 5455 5453 5450 5447 5443 5440 5438 5435 5431 5428 5423 5419 5417 5414 5411 5408 5404 5401 5398 5397
5507 5504 5501 5498 5495 5492 5490 5487 5485 5484 5481 5478 5476 5473 5471 5469 5466 5463 5460 5456 5452 5450 5447 5444 5441 5438 5436 5432 5428 5425 5422 5419 5416 5412 5410 5407 5403 5399 5396 5393 5389 5386 5386
5498 5495 5492 5489 5485 5482 5479 5477 5475 5472 5470 5468 5465 5463 5460 5458 5456 5453 5450 5445 5442 5439 5436 5434 5431 5428 5425 5421 5417 5413 5410 5408 5405 5401 5398 5395 5391 5388 5384 5380 5376 5372 5372
5489 5486 5483 5480 5476 5473 5470 5467 5465 5462 5459 5457 5455 5452 5450 5448 5446 5443 5440 5435 5432 5429 5426 5423 5421 5417 5413 5409 5405 5401 5398 5396 5392 5390 5387 5383 5380 5376 5372 5368 5364 5360 5358
5481 5477 5474 5470 5467 5464 5461 5458 5455 5452 5449 5446 5444 5442 5440 5438 5436 5433 5429 5424 5421 5418 5414 5411 5408 5405 5402 5398 5394 5390 5387 5384 5380 5377 5375 5371 5368 5364 5361 5357 5353 5349 5347
5472 5468 5464 5460 5458 5455 5451 5448 5445 5441 5438 5435 5433 5431 5429 5427 5425 5422 5419 5415 5411 5406 5403 5400 5397 5394 5390 5387 5383 5380 5376 5372 5368 5365 5362 5359 5356 5353 5350 5347 5343 5341 5339
5462 5458 5454 5451 5447 5444 5440 5437 5434 5430 5427 5424 5421 5419 5417 5415 5412 5410 5407 5404 5400 5396 5393 5390 5386 5383 5379 5375 5372 5368 5364 5359 5355 5352 5350 5348 5345 5342 5339 5336 5333 5331 5330
5452 5448 5445 5441 5437 5434 5430 5427 5423 5419 5416 5413 5409 5407 5405 5402 5399 5396 5393 5391 5388 5384 5381 5378 5375 5372 5367 5364 5360 5356 5351 5347 5343 5341 5338 5336 5333 5330 5327 5325 5323 5321 5320
5442 5438 5435 5431 5428 5424 5421 5417 5413 5410 5406 5403 5400 5396 5393 5391 5389 5386 5381 5378 5375 5372 5369 5366 5362 5358 5354 5350 5346 5342 5338 5335 5331 5328 5325 5324 5322 5319 5318 5315 5313 5312 5310
5431 5428 5424 5420 5417 5413 5410 5407 5405 5401 5398 5394 5391 5387 5384 5381 5379 5375 5371 5368 5365 5361 5357 5353 5350 5346 5342 5338 5334 5330 5326 5323 5319 5317 5314 5312 5310 5309 5307 5306 5304 5303 5302
5422 5418 5414 5410 5406 5402 5398 5394 5392 5391 5387 5384 5380 5377 5374 5371 5368 5364 5361 5358 5354 5350 5345 5341 5338 5334 5330 5326 5322 5319 5316 5312 5309 5306 5304 5302 5300 5298 5297 5296 5295 5294 5293
5412 5408 5404 5399 5395 5391 5387 5383 5380 5377 5375 5372 5370 5367 5365 5361 5358 5354 5350 5347 5342 5338 5333 5330 5326 5323 5319 5315 5312 5309 5306 5302 5299 5297 5294 5292 5290 5288 5287 5287 5286 5285 5285
5401 5396 5393 5389 5385 5380 5376 5373 5369 5366 5363 5361 5359 5356 5354 5351 5347 5343 5339 5334 5330 5326 5323 5319 5315 5312 5309 5305 5302 5299 5296 5293 5291 5288 5286 5284 5282 5280 5280 5279 5278 5278 5278
5390 5388 5384 5379 5374 5370 5366 5363 5359 5356 5353 5350 5348 5345 5342 5338 5334 5331 5327 5322 5319 5316 5312 5309 5306 5302 5299 5296 5293 5290 5287 5285 5282 5280 5279 5277 5275 5274 5273 5273 5272 5271 5271
5380 5376 5373 5368 5364 5360 5357 5353 5350 5346 5344 5341 5338 5335 5332 5327 5323 5320 5316 5313 5309 5306 5302 5299 5296 5293 5290 5287 5284 5281 5279 5277 5275 5273 5272 5270 5269 5268 5268 5267 5267 5266 5265
5369 5365 5361 5357 5354 5350 5347 5343 5340 5337 5334 5331 5328 5325 5322 5318 5314 5310 5307 5304 5301 5297 5293 5290 5287 5284 5281 5278 5275 5273 5271 5270 5268 5266 5265 5264 5263 5262 5262 5261 5260 5259 5259
5359 5355 5352 5348 5344 5341 5338 5334 5330 5327 5325 5321 5318 5315 5312 5308 5305 5302 5299 5296 5293 5289 5286 5282 5279 5276 5273 5270 5268 5266 5265 5264 5262 5261 5259 5259 5258 5257 5256 5255 5255 5254 5253
5349 5345 5342 5338 5334 5331 5327 5324 5321 5318 5315 5312 5309 5306 5303 5300 5296 5294 5291 5288 5285 5282 5278 5275 5272 5269 5266 5263 5261 5260 5259 5258 5256 5255 5255 5254 5253 5252 5251 5251 5250 5249 5248
5338 5335 5331 5328 5325 5321 5318 5315 5312 5309 5306 5303 5300 5297 5294 5291 5289 5286 5283 5280 5277 5274 5271 5268 5265 5262 5260 5258 5256 5255 5254 5253 5252 5251 5251 5250 5249 5248 5247 5246 5245 5245 5244
5329 5325 5322 5319 5315 5312 5309 5306 5303 5300 5297 5294 5291 5289 5286 5283 5281 5278 5275 5272 5269 5267 5264 5261 5258 5256 5254 5253 5251 5251 5250 5250 5249 5248 5248 5247 5246 5245 5243 5243 5242 5241 5240